Tracking 28066 objects as of 21-Sep-2023
HD Live streaming from Space Station
objects crossing your sky now

STARLINK-5590

Track STARLINK-5590 now!
10-day predictions
STARLINK-5590 is classified as:


NORAD ID: 55371
Int'l Code: 2023-013AS
Perigee: 565.5 km
Apogee: 567.0 km
Inclination: 43.0 °
Period: 95.8 minutes
Semi major axis: 6937 km
RCS: Unknown
Launch date: January 26, 2023
Source: United States (US)
Launch site: AIR FORCE EASTERN TEST RANGE (AFETR)
Your satellite tracking list
Your tracking list is empty




NASA's NSSDC Master Catalog

Two Line Element Set (TLE):
1 55371U 23013AS  23264.06148286 -.00001367  00000-0 -86141-4 0  9995
2 55371  43.0043 166.9022 0001122 277.2199  82.8515 15.02532377 36515
Source of the keplerian elements: AFSPC